User: anonymous   Login
Location: Unspecified
(0.0000°N, 0.0000°E)
Time: 21:07:02
(UTC+00:00)
Language:

STARLINK-6354 - Orbit

View from above orbital plane
View from above orbital plane
View from above satellite
View from above satellite

Ground track
Ground track

The orbit is defined by the following mean orbital elements,

1 56784U          26145.34849913 +.00000000 +00000-0 -62251-5 0 00004
2 56784  69.9986 131.2781 0003672 266.3808  93.6931 14.98330628    08
Epoch (UTC): 25 May 2026 08:21:50
Eccentricity: 0.0003672
inclination: 69.9986°
perigee height: 570 km
apogee height: 575 km
right ascension of ascending node: 131.2781°
argument of perigee: 266.3808°
revolutions per day: 14.98330628
mean anomaly at epoch: 93.6931°

The dashed part of the orbit path shows where the satellite is in the earth's shadow,  

DLR